Miscellaneous Local Product
Issued by NWS Hastings, NE

Home | Current Version | Previous Version | Graphics & Text | Print | Product List | Glossary On
Versions: 1 2 3 4 5 6 7 8 9 10 11 12 13 14 15 16 17 18 19 20 21 22 23 24 25 26 27 28 29 30 31 32 33 34 35 36 37 38 39 40 41 42 43 44 45 46 47 48 49 50
010
AXUS43 KGID 061402
MISGRI

GID CWA HOURLY WEATHER ROUNDUP
NATIONAL WEATHER SERVICE HASTINGS NE
800 AM CST SAT FEB 06 2016

NOTE: "FAIR" INDICATES FEW OR NO CLOUDS BELOW 12,000 FEET WITH NO
SIGNIFICANT WEATHER AND/OR OBSTRUCTIONS TO VISIBILITY.

...SOUTH CENTRAL NEBRASKA...

CITY           SKY/WX    TMP DP  RH WIND       PRES   REMARKS
GRAND ISLAND   CLOUDY    21  17  84 SW14      30.22F WCI   8
HASTINGS       CLOUDY    18  13  80 SW8       30.23S WCI   8
ORD            CLOUDY    14  11  87 CALM      30.16F
YORK           CLOUDY    12  10  92 SW6       30.24S WCI   3
AURORA         CLOUDY    16  15  95 SW10      30.22F WCI   4
LEXINGTON      CLOUDY   N/A N/A N/A CALM      30.21F
HOLDREGE       CLOUDY    18  13  80 W10       30.23S WCI   7
HEBRON         CLOUDY    13  12  94 CALM      30.28R

...NEBRASKA PANHANDLE...

CITY           SKY/WX    TMP DP  RH WIND       PRES   REMARKS
CHADRON        CLOUDY    20  15  81 SW7       30.13S WCI  11
ALLIANCE       CLOUDY    20  14  77 W17       30.11F WCI   5
SCOTTSBLUFF    CLOUDY    24  16  71 CALM      30.16S
SIDNEY         CLOUDY    24  14  65 W17       30.17S WCI  11

...WESTERN AND NORTH CENTRAL NEBRASKA...

CITY           SKY/WX    TMP DP  RH WIND       PRES   REMARKS
VALENTINE      CLOUDY    22  16  78 W10       30.07F WCI  11
AINSWORTH      CLOUDY    26  17  70 SW13      30.08F WCI  15
ONEILL         CLOUDY    22  17  81 SW10      30.12F WCI  11
BROKEN BOW     CLOUDY    14  10  84 SW5       30.15F WCI   6
IMPERIAL       CLOUDY    15   6  67 W12       30.19F WCI   2
NORTH PLATTE   CLOUDY    10   4  76 NW5       30.18F WCI   2
MCCOOK         CLOUDY    13   8  81 W12       30.24F WCI  -1

...EASTERN NEBRASKA...

CITY           SKY/WX    TMP DP  RH WIND       PRES   REMARKS
NORFOLK        CLOUDY    16  12  84 SW6       30.17F WCI   7
SO SIOUX CITY  FOG       15  11  83 E7        30.20S VSB 1/4 WCI   5
TEKAMAH        FOG       15  12  88 S12       30.23S VSB<1/4 WCI   2
COLUMBUS       CLOUDY    14   5  67 W5        30.22S WCI   6
ALBION         CLOUDY    23  19  83 CALM      30.19S
OMAHA EPPLEY   FOG       21  21 100 S5        30.25S VSB 1/2 WCI  15
OFFUTT AFB     FOG       16  16 100 CALM      30.25S VSB 1/2
MILLARD        FOG       18  15  90 CALM      30.25S VSB<1/4
LINCOLN        CLOUDY    17  15  92 SW6       30.28R FOG     WCI   9
NEBRASKA CITY  CLEAR     25  25 100 W8        30.26R WCI  17
BEATRICE       CLEAR     21  20  96 CALM      30.28R FOG
FALLS CITY     MOCLDY    26  25  96 CALM      30.27S FOG

...NORTHERN KANSAS...

CITY           SKY/WX    TMP DP  RH WIND       PRES   REMARKS
GOODLAND       CLOUDY    19  10  68 SW13      30.24R WCI   6
HILL CITY      CLOUDY    16   9  74 W7        30.29S WCI   6
NORTON         SUNNY     12   7  79 SW8       30.26S WCI   1
PHILLIPSBURG   CLEAR     16  10  79 CALM      30.29S
BELOIT         CLEAR     21  19  93 W8        30.31S WCI  12
HAYS           CLOUDY    16   3  57 W6        30.30R WCI   7
RUSSELL        CLEAR     18  15  88 W6        30.29S WCI  10
CONCORDIA      CLEAR     24  21  88 SW6       30.29S WCI  17
SALINA         CLEAR     24  20  84 SW5       30.33R WCI  18
TOPEKA         CLEAR     28  24  85 CALM      30.31S



USA.gov is the U.S. government's official web portal to all federal, state and local government web resources and services.